This demonstration page uses our WeatherBlox Daily Observations layout. Learn more.

Left ArrowRight Arrow

Hourly Observations for May 5, 2015

Temp ( °F °C ) Dew Point ( °F °C ) Humidity (%) Winds ( mph kmh ) Pressure ( in mb ) Visibility ( mi km ) Precip ( " mm )
12:16 am 00:16 Clear 64 18 N/A N/A ESE 6 9 30.18 1022 5 8.0467 N/A
12:36 am 00:36 Clear 63 17 N/A N/A ESE 6 9 30.18 1022 5 8.0467 N/A
12:56 am 00:56 Clear 63 17 N/A N/A ESE 6 9 30.18 1022 10 16.0934 N/A
1:16 am 01:16 Clear 63 17 N/A N/A ESE 3 6 30.18 1022 7 11.26538 N/A
1:36 am 01:36 Partly Cloudy 63 17 N/A N/A NNE 7 11 30.18 1022 7 11.26538 N/A
1:56 am 01:56 Clear 63 17 N/A N/A ESE 6 9 30.18 1022 4 6.43736 N/A
2:16 am 02:16 Clear 63 17 N/A N/A SE 6 9 30.18 1022 5 8.0467 N/A
2:36 am 02:36 Clear 63 17 N/A N/A ESE 9 15 30.18 1022 7 11.26538 N/A
2:56 am 02:56 Clear 63 17 N/A N/A SSE 6 9 30.18 1022 7 11.26538 N/A
3:16 am 03:16 Clear 63 17 N/A N/A SE 8 13 30.18 1022 7 11.26538 N/A
3:36 am 03:36 Clear 63 17 N/A N/A SE 7 11 30.18 1022 7 11.26538 N/A
3:56 am 03:56 Clear 61 16 N/A N/A SE 7 11 30.18 1022 7 11.26538 N/A
4:15 am 04:15 Clear 61 16 N/A N/A SE 6 9 30.18 1022 7 11.26538 N/A
4:36 am 04:36 Partly Cloudy 63 17 N/A N/A SE 7 11 30.18 1022 7 11.26538 N/A
4:56 am 04:56 Clear 61 16 N/A N/A SSE 5 7 30.18 1022 7 11.26538 N/A
5:16 am 05:16 Clear 61 16 N/A N/A S 3 6 30.18 1022 7 11.26538 N/A
5:36 am 05:36 Clear 61 16 N/A N/A S 5 7 30.18 1022 7 11.26538 N/A
5:55 am 05:55 Clear 61 16 N/A N/A S 6 9 30.18 1022 7 11.26538 N/A
6:16 am 06:16 Clear 63 17 N/A N/A S 8 13 30.18 1022 10 16.0934 N/A
6:36 am 06:36 Clear 63 17 N/A N/A S 8 13 30.18 1022 10 16.0934 N/A
6:56 am 06:56 Sunny 63 17 N/A N/A S 7 11 30.18 1022 10 16.0934 N/A
7:16 am 07:16 Sunny 63 17 N/A N/A S 6 9 30.18 1022 7 11.26538 N/A
7:36 am 07:36 Sunny 63 17 N/A N/A S 6 9 30.21 1023 10 16.0934 N/A
7:56 am 07:56 Sunny 63 17 63 17 100 100 S 5 7 30.21 1023 10 16.0934 N/A
8:16 am 08:16 Sunny 64 18 59 15 83 83 S 6 9 30.21 1023 10 16.0934 N/A
8:36 am 08:36 Sunny 64 18 57 14 78 78 S 7 11 30.21 1023 10 16.0934 N/A
8:56 am 08:56 Sunny 66 19 55 13 68 68 SSW 7 11 30.21 1023 10 16.0934 N/A
9:16 am 09:16 Sunny 68 20 54 12 60 60 SW 7 11 30.21 1023 10 16.0934 N/A
9:36 am 09:36 Sunny 70 21 50 10 50 50 SW 8 13 30.21 1023 10 16.0934 N/A
9:56 am 09:56 Sunny 72 22 46 8 41 41 SW 8 13 30.21 1023 10 16.0934 N/A
10:15 am 10:15 Sunny 73 23 45 7 36 36 SW 9 15 30.18 1022 10 16.0934 N/A
10:36 am 10:36 Sunny 73 23 43 6 33 33 WSW 10 17 30.18 1022 10 16.0934 N/A
10:56 am 10:56 Sunny 73 23 41 5 31 31 SW 10 17 30.18 1022 10 16.0934 N/A
11:16 am 11:16 Sunny 75 24 41 5 29 29 SW 9 15 30.18 1022 10 16.0934 N/A
11:36 am 11:36 Sunny 75 24 41 5 29 29 WSW 10 17 30.18 1022 10 16.0934 N/A
11:56 am 11:56 Sunny 79 26 39 4 24 24 W 12 19 30.18 1022 10 16.0934 N/A
12:16 pm 12:16 Sunny 79 26 39 4 24 24 W 10 17 30.18 1022 10 16.0934 N/A
12:36 pm 12:36 Sunny 79 26 41 5 26 26 WSW 12 19 30.18 1022 10 16.0934 N/A
12:56 pm 12:56 Sunny 81 27 34 1 18 18 WSW 15 24 30.18 1022 10 16.0934 N/A
1:16 pm 13:16 Sunny 81 27 36 2 20 20 W 14 22 30.18 1022 10 16.0934 N/A
1:36 pm 13:36 Sunny 81 27 36 2 20 20 W 13 20 30.18 1022 10 16.0934 N/A
1:56 pm 13:56 Sunny 81 27 34 1 18 18 WSW 13 20 30.15 1021 10 16.0934 N/A
2:16 pm 14:16 Sunny 81 27 34 1 18 18 WSW 13 20 30.15 1021 10 16.0934 N/A
2:36 pm 14:36 Sunny 82 28 32 0 16 16 SSW 9 15 30.15 1021 10 16.0934 N/A
2:56 pm 14:56 Sunny 84 29 28 -2 13 13 WSW 10 17 30.15 1021 10 16.0934 N/A
3:16 pm 15:16 Sunny 82 28 34 1 17 17 WSW 10 17 30.15 1021 10 16.0934 N/A
3:36 pm 15:36 Sunny 82 28 30 -1 15 15 WSW 13 20 30.15 1021 10 16.0934 N/A
3:56 pm 15:56 Sunny 84 29 32 0 15 15 SSW 12 19 30.15 1021 10 16.0934 N/A
4:16 pm 16:16 Sunny 84 29 30 -1 14 14 WSW 16 26 30.15 1021 10 16.0934 N/A
4:36 pm 16:36 Sunny 84 29 28 -2 13 13 SSW 14 22 30.15 1021 10 16.0934 N/A
4:56 pm 16:56 Sunny 82 28 32 0 16 16 WSW 8 13 30.15 1021 10 16.0934 N/A
5:16 pm 17:16 Sunny 81 27 34 1 18 18 SW 10 17 30.15 1021 10 16.0934 N/A
5:36 pm 17:36 Sunny 82 28 32 0 16 16 SW 9 15 30.12 1020 10 16.0934 N/A
5:56 pm 17:56 Sunny 82 28 30 -1 15 15 WSW 13 20 30.12 1020 10 16.0934 N/A
6:16 pm 18:16 Sunny 82 28 30 -1 15 15 SW 9 15 30.12 1020 10 16.0934 N/A
6:35 pm 18:35 Sunny 82 28 30 -1 15 15 S 10 17 30.12 1020 10 16.0934 N/A
6:56 pm 18:56 Sunny 82 28 32 0 16 16 SW 13 20 30.12 1020 10 16.0934 N/A
7:16 pm 19:16 Sunny 81 27 32 0 17 17 S 8 13 30.12 1020 10 16.0934 N/A
7:36 pm 19:36 Sunny 81 27 34 1 18 18 S 8 13 30.12 1020 10 16.0934 N/A
7:56 pm 19:56 Sunny 79 26 36 2 21 21 S 5 7 30.12 1020 10 16.0934 N/A
8:16 pm 20:16 Sunny 77 25 37 3 24 24 S 6 9 30.15 1021 10 16.0934 N/A
8:36 pm 20:36 Sunny 75 24 39 4 27 27 SSW 5 7 30.15 1021 10 16.0934 N/A
8:56 pm 20:56 Clear 73 23 37 3 27 27 SSW 5 7 30.15 1021 10 16.0934 N/A
9:15 pm 21:15 Clear 73 23 39 4 29 29 SSW 3 6 30.15 1021 10 16.0934 N/A
9:36 pm 21:36 Clear 72 22 41 5 33 33 S 3 6 30.18 1022 10 16.0934 N/A
9:56 pm 21:56 Clear 70 21 43 6 38 38 SSW 3 6 30.18 1022 10 16.0934 N/A
10:16 pm 22:16 Clear 70 21 41 5 35 35 S 5 7 30.18 1022 10 16.0934 N/A
10:36 pm 22:36 Clear 70 21 43 6 38 38 S 3 6 30.18 1022 10 16.0934 N/A
10:56 pm 22:56 Clear 66 19 45 7 46 46 SSW 3 6 30.18 1022 10 16.0934 N/A
11:16 pm 23:16 Clear 66 19 45 7 46 46 S 3 6 30.18 1022 10 16.0934 N/A
11:36 pm 23:36 Clear 66 19 45 7 46 46 S 5 7 30.18 1022 10 16.0934 N/A
11:56 pm 23:56 Clear 66 19 45 7 46 46 S 5 7 30.18 1022 10 16.0934 N/A

Powered by AerisWeather